This demonstration page uses our WeatherBlox Daily Observations layout. Learn more.

39.08367, -84.50855

Hourly Observations for January 31, 2019

Temp ( °F °C ) Dew Point ( °F °C ) Humidity (%) Winds ( mph kmh ) Pressure ( in mb ) Visibility ( mi km ) Precip ( " mm )
12:53 am 00:53 Clear 1 -17.2 -11 -23.9 56 56 W 10 17 30.48 1032 10 16.09344 0 0
1:53 am 01:53 Clear 1 -17.2 -10 -23.3 59 59 WSW 6 9 30.48 1032 10 16.09344 0 0
2:53 am 02:53 Clear 0 -17.8 -9 -22.8 65 65 SW 6 9 30.48 1032 10 16.09344 0 0
3:53 am 03:53 Clear 0 -17.8 -8 -22.2 69 69 SW 7 11 30.48 1032 10 16.09344 0 0
4:53 am 04:53 Clear 0 -17.8 -9 -22.8 65 65 SW 6 9 30.48 1032 10 16.09344 0 0
5:53 am 05:53 Clear 0 -17.8 -8 -22.2 69 69 S 7 11 30.48 1032 10 16.09344 0 0
6:53 am 06:53 Clear -1 -18.3 -7 -21.7 75 75 S 3 6 30.5 1033 10 16.09344 0 0
7:53 am 07:53 Sunny -1 -18.3 -6 -21.1 79 79 Calm 30.5 1033 10 16.09344 0 0
8:53 am 08:53 Sunny 1 -17.2 -5 -20.6 75 75 Calm 30.53 1034 10 16.09344 0 0
9:53 am 09:53 Sunny 5 -15 -6 -21.1 60 60 SW 6 9 30.53 1034 10 16.09344 0 0
10:53 am 10:53 Sunny 7 -13.9 -5 -20.6 57 57 S 6 9 30.53 1034 10 16.09344 0 0
11:53 am 11:53 Sunny 10 -12.2 -4 -20 53 53 W 5 7 30.53 1034 10 16.09344 0 0
12:53 pm 12:53 Sunny 11 -11.7 -4 -20 51 51 SW 5 7 30.5 1033 10 16.09344 0 0
1:53 pm 13:53 Sunny 13 -10.6 -3 -19.4 49 49 SW 6 9 30.48 1032 10 16.09344 0 0
2:53 pm 14:53 Sunny 14 -10 -3 -19.4 47 47 S 6 9 30.48 1032 10 16.09344 0 0
3:53 pm 15:53 Sunny 15 -9.4 -1 -18.3 49 49 S 8 13 30.45 1031 10 16.09344 0 0
4:53 pm 16:53 Sunny 16 -8.9 -1 -18.3 47 47 S 7 11 30.45 1031 10 16.09344 0 0
5:53 pm 17:53 Cloudy 16 -8.9 -1 -18.3 47 47 SE 3 6 30.42 1030 10 16.09344 0.001 0.001
6:53 pm 18:53 Cloudy 17 -8.3 -1 -18.3 45 45 Calm 30.42 1030 10 16.09344 0 0
7:53 pm 19:53 Cloudy 17 -8.3 3 -16.1 54 54 ENE 3 6 30.42 1030 10 16.09344 0 0
8:53 pm 20:53 Mostly Cloudy 17 -8.3 6 -14.4 62 62 ENE 3 6 30.39 1029 10 16.09344 0 0
9:53 pm 21:53 Cloudy 17 -8.3 7 -13.9 64 64 NE 7 11 30.36 1028 10 16.09344 0 0
10:53 pm 22:53 Cloudy 17 -8.3 8 -13.3 68 68 NE 8 13 30.33 1027 10 16.09344 0.001 0.001
11:53 pm 23:53 Cloudy 17 -8.3 9 -12.8 70 70 NE 9 15 30.33 1027 10 16.09344 0 0

Powered by AerisWeather